Location: Parc des �les de St-Timoth�e
(45.2924°N, 74.0481°W)
Time: 16:39:50
(UTC-04:00)

ISS - All Passes

Search period start: 23 May 2017 00:00
Search period end: 02 June 2017 00:00
Orbit: 402 x 409 km, 51.6° (Epoch: 24 May)

Date Brightness Start Highest point End Pass type
(mag) Time Alt. Az. Time Alt. Az. Time Alt. Az.
23 May - 01:26:07 10° WNW 01:28:58 26° N 01:31:48 10° ENE visible
23 May - 03:02:55 10° NW 03:06:02 37° NNE 03:09:07 10° E visible
23 May - 04:39:26 10° WNW 04:42:36 48° SW 04:45:46 10° SE visible
23 May - 21:21:37 10° S 21:23:45 16° SE 21:25:55 10° E visible
23 May - 22:56:36 10° WSW 22:59:53 80° NNW 23:03:12 10° ENE visible
24 May - 00:33:49 10° WNW 00:36:44 28° N 00:39:39 10° NE visible
24 May - 02:10:52 10° NW 02:13:50 30° NNE 02:16:48 10° ENE visible
24 May - 03:47:19 10° WNW 03:50:36 84° SSW 03:53:53 10° ESE visible
24 May - 05:25:06 10° WSW 05:26:38 13° SW 05:28:09 10° SSW daylight
24 May - 22:04:37 10° SW 22:07:51 61° SSE 22:11:07 10° ENE visible
24 May - 23:41:28 10° W 23:44:31 34° NNW 23:47:34 10° NE visible
25 May - 01:18:44 10° NW 01:21:36 27° N 01:24:28 10° ENE visible
25 May - 02:55:16 10° WNW 02:58:32 61° NNE 03:01:46 10° ESE visible
25 May - 04:32:10 10° W 04:34:48 22° SW 04:37:23 10° S visible
25 May - 21:12:50 10° SSW 21:15:52 34° SE 21:18:55 10° ENE visible
25 May - 22:49:08 10° W 22:52:19 45° NNW 22:55:31 10° NE visible
26 May - 00:26:30 10° WNW 00:29:20 26° N 00:32:10 10° ENE visible
26 May - 02:03:13 10° NW 02:06:22 42° NNE 02:09:31 10° E visible
26 May - 03:39:46 10° WNW 03:42:52 38° SW 03:45:56 10° SSE visible
26 May - 20:21:28 10° S 20:23:57 20° SE 20:26:27 10° E daylight
26 May - 21:56:53 10° WSW 22:00:10 67° NNW 22:03:28 10° ENE visible
26 May - 23:34:11 10° WNW 23:37:04 27° N 23:39:57 10° NE visible
27 May - 01:11:08 10° NW 01:14:10 32° NNE 01:17:10 10° E visible
27 May - 02:47:35 10° WNW 02:50:51 69° SSW 02:54:06 10° SE visible
27 May - 04:26:33 10° SW 04:26:47 10° SW 04:27:02 10° SW visible
27 May - 19:30:58 10° SSE 19:32:05 11° SE 19:33:13 10° ESE daylight
27 May - 21:04:47 10° SW 21:08:04 75° SSE 21:11:22 10° ENE visible
27 May - 22:41:47 10° WNW 22:44:48 31° NNW 22:47:48 10° NE visible
28 May - 00:19:00 10° NW 00:21:54 27° N 00:24:47 10° ENE visible
28 May - 01:55:28 10° WNW 01:58:46 72° NNE 02:02:02 10° ESE visible
28 May - 03:32:36 10° W 03:34:56 18° SW 03:37:15 10° S night (unlit)
28 May - 20:12:52 10° SW 20:16:01 42° SE 20:19:10 10° ENE daylight
28 May - 21:49:25 10° W 21:52:33 40° NNW 21:55:42 10° NE visible
28 May - 23:26:46 10° WNW 23:29:35 26° N 23:32:26 10° ENE visible
29 May - 01:03:23 10° NW 01:06:35 47° NNE 01:09:47 10° E visible
29 May - 02:40:03 10° WNW 02:43:00 31° SW 02:45:56 10° SSE visible
29 May - 19:21:17 10° SSW 19:24:02 24° SE 19:26:47 10° E daylight
29 May - 20:57:05 10° WSW 21:00:20 57° NNW 21:03:36 10° NE daylight
29 May - 22:34:26 10° WNW 22:37:17 26° N 22:40:08 10° NE visible
30 May - 00:11:17 10° NW 00:14:21 35° NNE 00:17:25 10° E visible
30 May - 01:47:45 10° WNW 01:50:59 55° SW 01:54:11 10° SE visible
30 May - 18:30:17 10° SSE 18:32:07 14° SE 18:33:57 10° E daylight
30 May - 20:04:52 10° WSW 20:08:10 90° NNW 20:11:29 10° ENE daylight
30 May - 21:42:01 10° WNW 21:44:58 29° N 21:47:55 10° NE visible
30 May - 23:19:08 10° NW 23:22:04 29° N 23:25:00 10° ENE visible
31 May - 00:55:34 10° WNW 00:58:53 86° NE 01:02:09 10° ESE visible
31 May - 02:33:02 10° W 02:34:57 15° SW 02:36:52 10° S night (unlit)
31 May - 19:12:51 10° SW 19:16:04 53° SE 19:19:18 10° ENE daylight
31 May - 20:49:34 10° W 20:52:40 36° NNW 20:55:46 10° NE daylight
31 May - 22:26:52 10° NW 22:29:44 26° N 22:32:35 10° ENE visible
01 Jun - 00:03:26 10° NW 00:06:41 55° NNE 00:09:55 10° ESE visible
01 Jun - 01:40:13 10° W 01:43:00 25° SW 01:45:47 10° SSE visible
01 Jun - 18:21:05 10° SSW 18:24:01 30° SE 18:26:57 10° ENE daylight
01 Jun - 19:57:11 10° W 20:00:24 49° NNW 20:03:37 10° NE daylight
01 Jun - 21:34:32 10° WNW 21:37:24 26° N 21:40:14 10° ENE visible
01 Jun - 23:11:19 10° NW 23:14:27 39° NNE 23:17:33 10° E visible
